Time,TemperatureF,DewpointF,PressureIn,WindDirection,WindDirectionDegrees,WindSpeedMPH,WindSpeedGustMPH,Humidity,HourlyPrecipIn,Conditions,Clouds,dailyrainin,SoftwareType,DateUTC
2013-06-15 00:02:00,65.0,64.0,30.06,NNW,328,0.0,0.0,96,0.00,,,0.14,,2013-06-15 04:02:00,
2013-06-15 00:12:00,65.0,64.0,30.05,NNW,328,0.0,0.0,97,0.00,,,0.14,,2013-06-15 04:12:00,
2013-06-15 00:22:00,64.0,63.0,30.05,NNW,328,0.0,0.0,97,0.00,,,0.14,,2013-06-15 04:22:00,
2013-06-15 00:34:00,64.0,63.0,30.04,NNW,328,0.0,0.0,98,0.00,,,0.14,,2013-06-15 04:34:00,
2013-06-15 00:43:00,64.0,63.0,30.04,NNW,328,0.0,0.0,98,0.00,,,0.14,,2013-06-15 04:43:00,
2013-06-15 00:53:00,64.0,64.0,30.04,NNW,328,0.0,0.0,99,0.00,,,0.14,,2013-06-15 04:53:00,
2013-06-15 01:02:00,63.0,63.0,30.04,NNW,328,0.0,0.0,99,0.00,,,0.14,,2013-06-15 05:02:00,
2013-06-15 01:12:00,63.0,63.0,30.04,NNW,328,0.0,0.0,99,0.00,,,0.14,,2013-06-15 05:12:00,
2013-06-15 01:22:00,63.0,63.0,30.04,NNW,328,0.0,0.0,99,0.00,,,0.14,,2013-06-15 05:22:00,
2013-06-15 01:34:00,63.0,63.0,30.05,NNW,328,0.0,0.0,99,0.00,,,0.14,,2013-06-15 05:34:00,
2013-06-15 01:43:00,63.0,63.0,30.06,NNW,328,0.0,0.0,99,0.00,,,0.14,,2013-06-15 05:43:00,
2013-06-15 01:52:00,62.0,62.0,30.04,NNW,328,0.0,0.0,99,0.00,,,0.14,,2013-06-15 05:52:00,
2013-06-15 02:02:00,62.0,62.0,30.05,NNW,328,0.0,0.0,99,0.00,,,0.14,,2013-06-15 06:02:00,
2013-06-15 02:12:00,62.0,62.0,30.05,NNW,328,0.0,0.0,99,0.00,,,0.14,,2013-06-15 06:12:00,
2013-06-15 02:24:00,62.0,62.0,30.05,NNW,328,0.0,0.0,99,0.00,,,0.14,,2013-06-15 06:24:00,
2013-06-15 02:33:00,62.0,62.0,30.06,NNW,328,0.0,0.0,99,0.00,,,0.14,,2013-06-15 06:33:00,
2013-06-15 02:43:00,61.0,61.0,30.06,NNW,328,0.0,0.0,99,0.00,,,0.13,,2013-06-15 06:43:00,
2013-06-15 02:53:00,61.0,61.0,30.06,NNW,328,0.0,0.0,99,0.00,,,0.07,,2013-06-15 06:53:00,
2013-06-15 03:01:00,61.0,61.0,30.06,NNW,328,0.0,0.0,99,0.00,,,0.02,,2013-06-15 07:01:00,
2013-06-15 03:11:00,61.0,61.0,30.07,NNW,328,0.0,0.0,99,0.00,,,0.01,,2013-06-15 07:11:00,
2013-06-15 03:23:00,61.0,61.0,30.06,NNW,328,0.0,0.0,99,0.00,,,0.01,,2013-06-15 07:23:00,
2013-06-15 03:33:00,61.0,61.0,30.06,NNW,328,0.0,0.0,99,0.00,,,0.00,,2013-06-15 07:33:00,
2013-06-15 03:43:00,61.0,61.0,30.06,NNW,328,0.0,0.0,99,0.00,,,0.00,,2013-06-15 07:43:00,
2013-06-15 03:53:00,61.0,61.0,30.06,NNW,328,0.0,0.0,99,0.00,,,0.00,,2013-06-15 07:53:00,
2013-06-15 04:02:00,61.0,61.0,30.06,NNW,328,0.0,0.0,99,0.00,,,0.00,,2013-06-15 08:02:00,
2013-06-15 04:11:00,60.0,60.0,30.05,NNW,328,0.0,0.0,99,0.00,,,0.00,,2013-06-15 08:11:00,
2013-06-15 04:22:00,60.0,60.0,30.05,NNW,328,0.0,0.0,99,0.00,,,0.00,,2013-06-15 08:22:00,
2013-06-15 04:33:00,60.0,60.0,30.04,NNW,328,0.0,0.0,99,0.00,,,0.00,,2013-06-15 08:33:00,
2013-06-15 04:42:00,60.0,60.0,30.04,NNW,328,0.0,0.0,99,0.00,,,0.00,,2013-06-15 08:42:00,
2013-06-15 04:53:00,60.0,60.0,30.04,South,175,3.0,6.0,99,0.00,,,0.00,,2013-06-15 08:53:00,
2013-06-15 05:02:00,60.0,60.0,30.04,SE,137,0.0,0.0,99,0.00,,,0.00,,2013-06-15 09:02:00,
2013-06-15 05:12:00,60.0,60.0,30.04,SE,137,0.0,0.0,99,0.00,,,0.00,,2013-06-15 09:12:00,
2013-06-15 05:22:00,61.0,61.0,30.04,South,186,5.0,6.0,99,0.00,,,0.00,,2013-06-15 09:22:00,
2013-06-15 05:33:00,61.0,61.0,30.04,SSE,160,3.0,3.0,99,0.00,,,0.00,,2013-06-15 09:33:00,
2013-06-15 05:43:00,61.0,61.0,30.05,SSE,152,0.0,0.0,99,0.00,,,0.00,,2013-06-15 09:43:00,
2013-06-15 05:52:00,61.0,61.0,30.06,SSE,152,0.0,0.0,99,0.00,,,0.00,,2013-06-15 09:52:00,
2013-06-15 06:02:00,61.0,61.0,30.07,SSE,152,0.0,0.0,99,0.00,,,0.00,,2013-06-15 10:02:00,
2013-06-15 06:11:00,61.0,61.0,30.08,SSE,152,0.0,0.0,99,0.00,,,0.00,,2013-06-15 10:11:00,
2013-06-15 06:23:00,61.0,61.0,30.08,SSE,152,0.0,0.0,99,0.00,,,0.00,,2013-06-15 10:23:00,
2013-06-15 06:34:00,61.0,61.0,30.08,SSE,152,0.0,0.0,99,0.00,,,0.00,,2013-06-15 10:34:00,
2013-06-15 06:44:00,61.0,61.0,30.08,SSE,152,0.0,0.0,99,0.00,,,0.00,,2013-06-15 10:44:00,
2013-06-15 06:53:00,61.0,61.0,30.08,SSE,152,0.0,0.0,99,0.00,,,0.00,,2013-06-15 10:53:00,
2013-06-15 07:02:00,61.0,61.0,30.08,SSW,202,5.0,6.0,99,0.00,,,0.00,,2013-06-15 11:02:00,
2013-06-15 07:12:00,62.0,62.0,30.08,SSW,202,1.0,3.0,99,0.00,,,0.00,,2013-06-15 11:12:00,
2013-06-15 07:22:00,62.0,62.0,30.09,SW,215,0.0,0.0,99,0.00,,,0.00,,2013-06-15 11:22:00,
2013-06-15 07:33:00,62.0,62.0,30.09,SW,215,0.0,0.0,99,0.00,,,0.00,,2013-06-15 11:33:00,
2013-06-15 07:43:00,63.0,63.0,30.09,SW,215,0.0,0.0,99,0.00,,,0.00,,2013-06-15 11:43:00,
2013-06-15 07:53:00,63.0,63.0,30.09,SW,215,0.0,0.0,99,0.00,,,0.00,,2013-06-15 11:53:00,
2013-06-15 08:02:00,63.0,63.0,30.09,SW,215,0.0,0.0,99,0.00,,,0.00,,2013-06-15 12:02:00,
2013-06-15 08:12:00,63.0,63.0,30.09,SW,215,0.0,0.0,99,0.00,,,0.00,,2013-06-15 12:12:00,
2013-06-15 08:22:00,64.0,64.0,30.09,SSW,204,2.0,5.0,99,0.00,,,0.00,,2013-06-15 12:22:00,
2013-06-15 08:33:00,65.0,65.0,30.09,South,189,0.0,0.0,99,0.00,,,0.00,,2013-06-15 12:33:00,
2013-06-15 08:43:00,66.0,66.0,30.09,West,265,2.0,6.0,99,0.00,,,0.00,,2013-06-15 12:43:00,
2013-06-15 08:52:00,66.0,65.0,30.09,SSW,210,5.0,6.0,97,0.00,,,0.00,,2013-06-15 12:52:00,
2013-06-15 09:02:00,67.0,66.0,30.09,SSW,210,5.0,6.0,96,0.00,,,0.00,,2013-06-15 13:02:00,
2013-06-15 09:11:00,67.0,66.0,30.09,SSW,210,5.0,6.0,96,0.00,,,0.00,,2013-06-15 13:11:00,
2013-06-15 09:22:00,68.0,66.0,30.08,SSW,205,3.0,5.0,94,0.00,,,0.00,,2013-06-15 13:22:00,
2013-06-15 09:32:00,69.0,67.0,30.07,South,189,6.0,8.0,92,0.00,,,0.00,,2013-06-15 13:32:00,
2013-06-15 09:43:00,69.0,67.0,30.07,South,189,6.0,8.0,92,0.00,,,0.00,,2013-06-15 13:43:00,
2013-06-15 09:53:00,71.0,67.0,30.07,SW,225,7.0,9.0,88,0.00,,,0.00,,2013-06-15 13:53:00,
2013-06-15 10:01:00,72.0,67.0,30.06,SSW,202,1.0,8.0,83,0.00,,,0.00,,2013-06-15 14:01:00,
2013-06-15 10:12:00,72.0,67.0,30.05,SSW,200,7.0,10.0,83,0.00,,,0.00,,2013-06-15 14:12:00,
2013-06-15 10:22:00,72.0,66.0,30.04,SW,217,6.0,6.0,82,0.00,,,0.00,,2013-06-15 14:22:00,
2013-06-15 10:34:00,73.0,68.0,30.03,SSW,203,6.0,9.0,83,0.00,,,0.00,,2013-06-15 14:34:00,
2013-06-15 10:43:00,73.0,67.0,30.02,SSW,195,7.0,8.0,82,0.00,,,0.00,,2013-06-15 14:43:00,
2013-06-15 10:53:00,75.0,67.0,30.00,South,178,7.0,8.0,76,0.00,,,0.00,,2013-06-15 14:53:00,
2013-06-15 11:02:00,75.0,67.0,29.99,South,191,8.0,10.0,76,0.00,,,0.00,,2013-06-15 15:02:00,
2013-06-15 11:11:00,75.0,66.0,29.98,SSE,164,9.0,15.0,74,0.00,,,0.00,,2013-06-15 15:11:00,
2013-06-15 11:22:00,76.0,67.0,29.98,South,184,8.0,10.0,74,0.00,,,0.00,,2013-06-15 15:22:00,
2013-06-15 11:33:00,76.0,66.0,29.98,South,176,7.0,8.0,72,0.00,,,0.00,,2013-06-15 15:33:00,
2013-06-15 11:43:00,76.0,66.0,29.99,SSW,193,8.0,10.0,72,0.00,,,0.00,,2013-06-15 15:43:00,
2013-06-15 11:53:00,77.0,67.0,30.00,SSW,202,5.0,6.0,72,0.00,,,0.00,,2013-06-15 15:53:00,
2013-06-15 12:01:00,78.0,69.0,30.01,SW,214,6.0,9.0,73,0.00,,,0.00,,2013-06-15 16:01:00,
2013-06-15 12:11:00,79.0,67.0,30.00,SW,221,7.0,9.0,66,0.00,,,0.00,,2013-06-15 16:11:00,
2013-06-15 12:22:00,79.0,65.0,30.01,SSW,205,9.0,14.0,63,0.00,,,0.00,,2013-06-15 16:22:00,
2013-06-15 12:33:00,78.0,64.0,30.01,SW,223,9.0,12.0,63,0.00,,,0.00,,2013-06-15 16:33:00,
2013-06-15 12:43:00,78.0,64.0,30.01,WSW,247,7.0,12.0,63,0.00,,,0.00,,2013-06-15 16:43:00,
2013-06-15 12:53:00,77.0,64.0,30.01,SW,214,5.0,8.0,65,0.00,,,0.00,,2013-06-15 16:53:00,
2013-06-15 13:02:00,77.0,64.0,30.02,West,277,5.0,6.0,65,0.00,,,0.00,,2013-06-15 17:02:00,
2013-06-15 13:12:00,78.0,65.0,30.02,WSW,244,0.0,0.0,65,0.00,,,0.00,,2013-06-15 17:12:00,
2013-06-15 13:22:00,78.0,65.0,30.02,West,260,6.0,7.0,65,0.00,,,0.00,,2013-06-15 17:22:00,
2013-06-15 13:32:00,78.0,65.0,30.03,West,278,2.0,10.0,65,0.00,,,0.00,,2013-06-15 17:32:00,
2013-06-15 13:43:00,78.0,65.0,30.03,West,263,5.0,8.0,65,0.00,,,0.00,,2013-06-15 17:43:00,
2013-06-15 14:01:00,80.0,66.0,30.03,West,260,8.0,10.0,62,0.00,,,0.00,,2013-06-15 18:01:00,
2013-06-15 14:12:00,80.0,65.0,30.03,West,268,5.0,7.0,60,0.00,,,0.00,,2013-06-15 18:12:00,
2013-06-15 14:22:00,79.0,64.0,30.03,WSW,256,8.0,9.0,61,0.00,,,0.00,,2013-06-15 18:22:00,
2013-06-15 14:32:00,79.0,66.0,30.03,WSW,258,5.0,8.0,64,0.00,,,0.00,,2013-06-15 18:32:00,
2013-06-15 14:43:00,78.0,65.0,30.02,WSW,245,1.0,5.0,64,0.00,,,0.00,,2013-06-15 18:43:00,
2013-06-15 14:53:00,79.0,66.0,30.02,NNW,342,1.0,5.0,65,0.00,,,0.00,,2013-06-15 18:53:00,
2013-06-15 15:01:00,79.0,67.0,30.01,WNW,294,0.0,0.0,66,0.00,,,0.00,,2013-06-15 19:01:00,
2013-06-15 15:12:00,79.0,67.0,30.01,West,281,0.0,0.0,66,0.00,,,0.00,,2013-06-15 19:12:00,
2013-06-15 15:22:00,79.0,68.0,30.01,West,281,0.0,0.0,69,0.00,,,0.00,,2013-06-15 19:22:00,
2013-06-15 15:43:00,78.0,69.0,30.01,West,281,0.0,2.0,74,0.00,,,0.00,,2013-06-15 19:43:00,
2013-06-15 15:52:00,77.0,69.0,30.01,South,176,0.0,0.0,77,0.00,,,0.00,,2013-06-15 19:52:00,
2013-06-15 16:02:00,76.0,68.0,30.01,South,176,0.0,0.0,77,0.00,,,0.00,,2013-06-15 20:02:00,
2013-06-15 16:11:00,75.0,67.0,30.00,South,176,0.0,0.0,75,0.00,,,0.00,,2013-06-15 20:11:00,
2013-06-15 16:22:00,76.0,69.0,30.00,ESE,117,0.0,0.0,79,0.00,,,0.00,,2013-06-15 20:22:00,
2013-06-15 16:33:00,75.0,69.0,30.01,NE,52,0.0,0.0,81,0.00,,,0.00,,2013-06-15 20:33:00,
2013-06-15 16:43:00,75.0,69.0,30.01,NE,52,0.0,0.0,83,0.00,,,0.00,,2013-06-15 20:43:00,
2013-06-15 16:53:00,75.0,70.0,30.00,NE,52,0.0,0.0,85,0.00,,,0.00,,2013-06-15 20:53:00,
2013-06-15 17:02:00,74.0,70.0,30.00,NE,52,0.0,0.0,86,0.00,,,0.00,,2013-06-15 21:02:00,
2013-06-15 17:12:00,74.0,70.0,30.00,NE,52,0.0,0.0,87,0.00,,,0.00,,2013-06-15 21:12:00,
2013-06-15 17:22:00,74.0,70.0,30.00,NE,52,0.0,0.0,86,0.00,,,0.00,,2013-06-15 21:22:00,
2013-06-15 17:33:00,75.0,70.0,29.99,NE,52,0.0,0.0,84,0.00,,,0.00,,2013-06-15 21:33:00,
2013-06-15 17:42:00,76.0,70.0,29.99,NE,52,0.0,0.0,82,0.00,,,0.00,,2013-06-15 21:42:00,
2013-06-15 18:01:00,78.0,69.0,29.98,WNW,299,8.0,9.0,75,0.00,,,0.00,,2013-06-15 22:01:00,
2013-06-15 18:11:00,78.0,68.0,29.98,West,279,8.0,10.0,72,0.00,,,0.00,,2013-06-15 22:11:00,
2013-06-15 18:22:00,79.0,69.0,29.97,West,270,6.0,9.0,71,0.00,,,0.00,,2013-06-15 22:22:00,
2013-06-15 18:33:00,79.0,68.0,29.97,West,277,6.0,9.0,68,0.00,,,0.00,,2013-06-15 22:33:00,
2013-06-15 18:43:00,79.0,66.0,29.96,West,270,8.0,12.0,65,0.00,,,0.00,,2013-06-15 22:43:00,
2013-06-15 18:53:00,79.0,67.0,29.95,WNW,283,7.0,10.0,66,0.00,,,0.00,,2013-06-15 22:53:00,
2013-06-15 19:02:00,79.0,67.0,29.94,West,263,6.0,8.0,66,0.00,,,0.00,,2013-06-15 23:02:00,
2013-06-15 19:12:00,79.0,66.0,29.93,West,263,7.0,12.0,65,0.00,,,0.00,,2013-06-15 23:12:00,
2013-06-15 19:22:00,79.0,67.0,29.93,West,278,6.0,8.0,66,0.00,,,0.00,,2013-06-15 23:22:00,
2013-06-15 19:33:00,79.0,67.0,29.92,WNW,283,6.0,9.0,66,0.00,,,0.00,,2013-06-15 23:33:00,
2013-06-15 19:42:00,79.0,67.0,29.93,WSW,256,3.0,5.0,67,0.00,,,0.00,,2013-06-15 23:42:00,
2013-06-15 19:53:00,78.0,66.0,29.92,West,274,5.0,8.0,67,0.00,,,0.00,,2013-06-15 23:53:00,
2013-06-15 20:02:00,78.0,66.0,29.92,WSW,241,1.0,0.0,67,0.00,,,0.00,,2013-06-16 00:02:00,
2013-06-15 20:11:00,78.0,67.0,29.93,West,270,1.0,0.0,69,0.00,,,0.00,,2013-06-16 00:11:00,
2013-06-15 20:22:00,77.0,67.0,29.93,West,270,0.0,0.0,71,0.00,,,0.00,,2013-06-16 00:22:00,
2013-06-15 20:34:00,77.0,67.0,29.93,WSW,253,6.0,7.0,71,0.00,,,0.00,,2013-06-16 00:34:00,
2013-06-15 20:43:00,77.0,67.0,29.93,WSW,253,6.0,7.0,71,0.00,,,0.00,,2013-06-16 00:43:00,
2013-06-15 20:52:00,76.0,67.0,29.95,West,271,3.0,5.0,73,0.00,,,0.00,,2013-06-16 00:52:00,
2013-06-15 21:01:00,76.0,67.0,29.95,West,261,6.0,7.0,75,0.00,,,0.00,,2013-06-16 01:01:00,
2013-06-15 21:11:00,76.0,67.0,29.96,SW,236,6.0,8.0,75,0.00,,,0.00,,2013-06-16 01:11:00,
2013-06-15 21:22:00,75.0,67.0,29.96,SW,232,7.0,9.0,75,0.00,,,0.00,,2013-06-16 01:22:00,
2013-06-15 21:33:00,75.0,67.0,29.96,West,267,6.0,8.0,76,0.00,,,0.00,,2013-06-16 01:33:00,
2013-06-15 21:42:00,75.0,67.0,29.96,West,262,5.0,7.0,77,0.00,,,0.00,,2013-06-16 01:42:00,
2013-06-15 21:53:00,75.0,68.0,29.96,West,261,3.0,9.0,78,0.00,,,0.00,,2013-06-16 01:53:00,
2013-06-15 22:02:00,74.0,67.0,29.96,West,262,6.0,7.0,79,0.00,,,0.00,,2013-06-16 02:02:00,
2013-06-15 22:12:00,74.0,67.0,29.96,WSW,257,6.0,8.0,80,0.00,,,0.00,,2013-06-16 02:12:00,
2013-06-15 22:22:00,74.0,67.0,29.96,SW,229,1.0,0.0,80,0.00,,,0.00,,2013-06-16 02:22:00,
2013-06-15 22:33:00,74.0,67.0,29.96,South,189,0.0,0.0,80,0.00,,,0.00,,2013-06-16 02:33:00,
2013-06-15 22:43:00,73.0,66.0,29.96,WSW,248,3.0,5.0,80,0.00,,,0.00,,2013-06-16 02:43:00,
2013-06-15 22:53:00,73.0,67.0,29.96,West,265,3.0,5.0,81,0.00,,,0.00,,2013-06-16 02:53:00,
2013-06-15 23:02:00,72.0,66.0,29.96,SW,220,0.0,3.0,81,0.00,,,0.00,,2013-06-16 03:02:00,
2013-06-15 23:12:00,72.0,66.0,29.96,West,270,5.0,6.0,82,0.00,,,0.00,,2013-06-16 03:12:00,
2013-06-15 23:22:00,72.0,66.0,29.96,WSW,246,5.0,6.0,82,0.00,,,0.00,,2013-06-16 03:22:00,
2013-06-15 23:34:00,72.0,66.0,29.96,SW,230,5.0,5.0,82,0.00,,,0.00,,2013-06-16 03:34:00,
2013-06-15 23:43:00,72.0,67.0,29.95,SSW,204,2.0,5.0,83,0.00,,,0.00,,2013-06-16 03:43:00,
2013-06-15 23:53:00,71.0,66.0,29.95,WSW,242,5.0,6.0,83,0.00,,,0.00,,2013-06-16 03:53:00,